Regional Weather Roundup
Issued by NWS Newport/Morehead, NC

Current Version | Previous Version | Graphics & Text | Print | Product List | Glossary On
Versions: 1 2 3 4 5 6 7 8 9 10 11 12 13 14 15 16 17 18 19 20 21 22 23 24 25 26 27 28 29 30 31 32 33 34 35 36 37 38 39 40 41 42 43 44 45 46 47 48 49 50
000 ASUS42 KMHX 260322 RWRMHX WEATHER ROUNDUP FOR EASTERN NORTH CAROLINA NATIONAL WEATHER SERVICE NEWPORT/MOREHEAD CITY NC 1000 PM EST THU DEC 25 2014 NOTE: "FAIR" INDICATES FEW OR NO CLOUDS BELOW 12,000 FEET WITH NO SIGNIFICANT WEATHER AND/OR OBSTRUCTIONS TO VISIBILITY NCZ015>017-031-032-045>047-102-103-260400- NORTH COAST CITY SKY/WX TMP DP RH WIND PRES REMARKS EDENTON N/A 41 37 86 CALM 30.24R ELIZABETH CITY CLEAR 46 35 65 W6 30.23R KITTY HAWK CLEAR 48 44 87 W3 30.22R MANTEO CLEAR 46 39 76 NW3 30.24R $$ NCZ045>047-081-094-103-104-260400- CENTRAL COAST CITY SKY/WX TMP DP RH WIND PRES REMARKS FRISCO CLEAR 43 42 97 N3 30.23R SWANQUARTER N/A 45 N/A N/A N1 30.21S $$ NCZ095-097-098-100-101-260400- SOUTHERN COAST CITY SKY/WX TMP DP RH WIND PRES REMARKS BEAUFORT CLEAR 44 41 89 N3 30.25R CEDAR ISLAND N/A 50 N/A N/A NW6 30.30R JACKSONVILLE CLEAR 44 41 89 CALM 30.24R PINEY ISLAND CLEAR 52 44 74 N8 30.24R WILMINGTON CLEAR 42 42 100 CALM 30.25R $$ NCZ011>013-027>030-043-044-078>080-089-090>093-098-260400- COASTAL PLAIN CITY SKY/WX TMP DP RH WIND PRES REMARKS AHOSKIE CLEAR 36 35 93 CALM 30.24S CLINTON CLEAR 40 40 100 CALM 30.26S ELIZABETHTOWN CLEAR 42 38 85 CALM 30.26R GOLDSBORO CLEAR 42 41 98 N1 30.23R GREENVILLE CLEAR 39 39 100 CALM 30.26R HAVELOCK CLEAR 42 40 92 CALM 30.26R KENANSVILLE CLEAR 37 37 98 CALM 30.27R KINSTON CLEAR 37 36 97 CALM 30.26R NEW BERN CLEAR 42 37 82 CALM 30.25R RICHLANDS CLEAR 39 36 87 CALM 30.26R ROCKY MOUNT CLEAR 38 35 89 CALM 30.24R WASHINGTON CLEAR 40 38 93 CALM 30.26R WHITEVILLE CLEAR 43 41 94 CALM 30.26R $$ AMZ130-135-150-152-154-156-158-170-250-252-270-ANZ085-086-088-633-658-670-260400- MARINE OBSERVATIONS STATION/POSITION TIME TEMP WIND PRES WAVE SWELL AIR SEA DIR/SP/G HT/PER HT/PER (UTC) (F) (DEG/KT/KT) (MB) (FT/S) (FT/S) CHESAPEAKE LIGHT 0300 49 280/ 4/ 5 1023.8 64 E VA BEACH 0300 52 52 260/ 4/ 4 1022.8 4/ 8 3/ 8 DUCK 0300 50 50 290/ 7/ 8 1022.8 2 E DUCK 0300 50 N/A 2/11 10 NE DUCK 0300 50 N/A 2/ 9 OREGON INLET 0300 49 54 300/ 5/ 6 1023.6 13E OREGON INLT 0300 51 N/A 3/ 9 HATTERAS CG 0300 53 58 330/ 7/ 8 1024.4 DIAMOND BUOY 0300 56 1023.7 6/ 9 17 S OCRACOKE NOT AVBL CAPE LOOKOUT 0300 54 340/ 7/ 9 1024.0 BEAUFORT LAB 0300 50 55 350/ 2/ 3 1023.3 30 SE NEW RIVER 0300 58 60 350/ 10/ 12 1024.1 4/ 8 3/ 8 5 SE WRIGHTSVLE NOT AVBL 225 S CAPE HAT 0155 69 74 330/ 12/ 16 1022.3 8/ 8 7/ 8 41 SE CHARLESTON 0300 59 71 330/ 12/ 16 1023.6 3/ 5 2/ 5 $$

USA.gov is the U.S. government's official web portal to all federal, state and local government web resources and services.